| time (UTC) | temp F | wind direction | speed knots | gust knots | rain 1hr in | rain 24hr in | rain mn in | humidity % | barometer mb |
| 20260505164532 | 53 | 276 | 11.3 | 0.0 | 0.00 | 0.02 | 0.02 | 43 | 978.2 |
| 20260505163051 | 52 | 278 | 10.4 | 0.0 | 0.00 | 0.02 | 0.02 | 46 | 976.6 |
| 20260505161532 | 52 | 272 | 9.6 | 0.0 | 0.00 | 0.02 | 0.02 | 46 | 976.6 |
| 20260505153053 | 51 | 278 | 11.3 | 0.0 | 0.00 | 0.02 | 0.02 | 49 | 977.3 |
| 20260505151532 | 51 | 280 | 11.3 | 0.0 | 0.00 | 0.02 | 0.02 | 49 | 977.3 |
| 20260505150107 | 51 | 275 | 11.3 | 0.0 | 0.00 | 0.02 | 0.02 | 49 | 977.3 |
| 20260505140107 | 49 | 279 | 10.4 | 0.0 | 0.02 | 0.02 | 0.02 | 55 | 977.2 |
| 20260505124531 | 51 | 310 | 8.7 | 0.0 | 0.00 | 0.00 | 0.00 | 68 | 976.0 |
| 20260505123051 | 51 | 287 | 9.6 | 0.0 | 0.00 | 0.00 | 0.00 | 70 | 974.6 |
| 20260505121531 | 50 | 295 | 9.6 | 0.0 | 0.00 | 0.00 | 0.00 | 70 | 974.6 |
| 20260505120111 | 50 | 284 | 9.6 | 0.0 | 0.00 | 0.00 | 0.00 | 70 | 974.6 |
| 20260505114532 | 50 | 279 | 7.8 | 0.0 | 0.00 | 0.00 | 0.00 | 67 | 974.6 |
| 20260505113049 | 50 | 270 | 7.0 | 0.0 | 0.00 | 0.00 | 0.00 | 63 | 973.3 |
| 20260505111531 | 50 | 264 | 7.0 | 0.0 | 0.00 | 0.00 | 0.00 | 63 | 973.3 |
| 20260505110105 | 50 | 258 | 7.0 | 0.0 | 0.00 | 0.00 | 0.00 | 63 | 973.3 |
| 20260505101531 | 51 | 259 | 8.7 | 0.0 | 0.00 | 0.00 | 0.00 | 57 | 971.9 |
| 20260505100104 | 51 | 262 | 8.7 | 0.0 | 0.00 | 0.00 | 0.00 | 57 | 971.9 |
| 20260505094531 | 52 | 262 | 7.0 | 0.0 | 0.00 | 0.00 | 0.00 | 68 | 972.0 |
| 20260505093054 | 52 | 265 | 6.1 | 0.0 | 0.00 | 0.00 | 0.00 | 71 | 971.8 |
| 20260505091531 | 52 | 250 | 9.6 | 0.0 | 0.00 | 0.00 | 0.00 | 71 | 971.8 |
| 20260505090107 | 52 | 253 | 6.1 | 0.0 | 0.00 | 0.00 | 0.00 | 71 | 971.8 |
| 20260505084529 | 53 | 270 | 7.8 | 0.0 | 0.00 | 0.00 | 0.00 | 74 | 972.1 |
| 20260505083050 | 53 | 265 | 7.8 | 0.0 | 0.00 | 0.00 | 0.00 | 80 | 971.4 |
| 20260505081531 | 54 | 259 | 8.7 | 0.0 | 0.00 | 0.00 | 0.00 | 80 | 971.4 |
| 20260505080100 | 54 | 255 | 10.4 | 0.0 | 0.00 | 0.00 | 0.00 | 73 | 971.7 |
| 20260505074531 | 55 | 247 | 9.6 | 0.0 | 0.00 | 0.00 | 0.00 | 75 | 971.0 |
| 20260505073052 | 55 | 242 | 8.7 | 0.0 | 0.00 | 0.00 | 0.00 | 75 | 971.0 |
| 20260505071531 | 56 | 230 | 9.6 | 0.0 | 0.00 | 0.00 | 0.00 | 75 | 971.0 |
| 20260505064531 | 57 | 250 | 8.7 | 0.0 | 0.00 | 0.00 | 0.00 | 77 | 971.8 |
| 20260505063048 | 57 | 241 | 9.6 | 0.0 | 0.00 | 0.00 | 0.00 | 76 | 971.0 |
| 20260505061532 | 58 | 239 | 9.6 | 0.0 | 0.00 | 0.00 | 0.00 | 76 | 971.0 |
| 20260505060108 | 58 | 239 | 8.7 | 0.0 | 0.00 | 0.00 | 0.00 | 76 | 971.0 |
| 20260505054532 | 59 | 245 | 10.4 | 0.0 | 0.00 | 0.00 | 0.00 | 73 | 972.0 |
| 20260505053055 | 59 | 221 | 11.3 | 0.0 | 0.00 | 0.00 | 0.00 | 61 | 971.0 |
| 20260505051531 | 61 | 224 | 11.3 | 0.0 | 0.00 | 0.00 | 0.00 | 61 | 971.1 |
| 20260505041531 | 62 | 205 | 13.0 | 0.0 | 0.00 | 0.00 | 0.00 | 64 | 971.0 |
| 20260505040104 | 62 | 203 | 13.0 | 0.0 | 0.00 | 0.00 | 0.00 | 64 | 971.0 |
| 20260505034528 | 63 | 205 | 13.0 | 0.0 | 0.00 | 0.00 | 0.00 | 61 | 970.7 |
| 20260505033051 | 62 | 196 | 13.9 | 0.0 | 0.00 | 0.00 | 0.00 | 58 | 970.5 |
| 20260505031531 | 62 | 210 | 13.0 | 0.0 | 0.00 | 0.00 | 0.00 | 58 | 970.5 |
| 20260505024531 | 63 | 202 | 13.9 | 0.0 | 0.00 | 0.00 | 0.00 | 54 | 971.1 |
| 20260505023052 | 64 | 216 | 16.5 | 0.0 | 0.00 | 0.00 | 0.00 | 56 | 971.2 |
| 20260505021531 | 65 | 215 | 15.6 | 0.0 | 0.00 | 0.00 | 0.00 | 56 | 971.1 |
| 20260505014531 | 64 | 213 | 13.0 | 0.0 | 0.00 | 0.00 | 0.00 | 57 | 970.2 |
| 20260505013049 | 65 | 212 | 13.9 | 0.0 | 0.00 | 0.00 | 0.00 | 57 | 970.2 |
| 20260505011531 | 64 | 215 | 13.0 | 0.0 | 0.00 | 0.00 | 0.00 | 57 | 970.2 |
| 20260505010057 | 65 | 208 | 13.0 | 0.0 | 0.00 | 0.00 | 0.00 | 57 | 970.2 |
| 20260505004531 | 66 | 205 | 9.6 | 0.0 | 0.00 | 0.00 | 0.00 | 37 | 970.7 |
| 20260505003048 | 67 | 208 | 7.8 | 0.0 | 0.00 | 0.00 | 0.00 | 41 | 971.5 |
| 20260505001530 | 68 | 208 | 6.1 | 0.0 | 0.00 | 0.00 | 0.00 | 41 | 971.5 |
| 20260504234530 | 70 | 233 | 7.0 | 0.0 | 0.00 | 0.00 | 0.00 | 31 | 971.2 |
| 20260504233049 | 71 | 248 | 8.7 | 0.0 | 0.00 | 0.00 | 0.00 | 31 | 971.2 |
| 20260504231530 | 71 | 255 | 10.4 | 0.0 | 0.00 | 0.00 | 0.00 | 31 | 971.2 |
| 20260504230056 | 72 | 257 | 11.3 | 0.0 | 0.00 | 0.00 | 0.00 | 31 | 971.2 |
| 20260504224531 | 73 | 257 | 13.9 | 0.0 | 0.00 | 0.00 | 0.00 | 36 | 970.7 |
| 20260504223051 | 73 | 253 | 14.8 | 0.0 | 0.00 | 0.00 | 0.00 | 36 | 971.1 |
| 20260504221530 | 73 | 250 | 15.6 | 0.0 | 0.00 | 0.00 | 0.00 | 36 | 971.1 |
| 20260504220104 | 73 | 249 | 14.8 | 0.0 | 0.00 | 0.00 | 0.00 | 36 | 971.1 |
| 20260504214529 | 73 | 251 | 14.8 | 0.0 | 0.00 | 0.00 | 0.00 | 35 | 972.2 |
| 20260504213051 | 73 | 253 | 15.6 | 0.0 | 0.00 | 0.00 | 0.00 | 35 | 972.2 |
| 20260504211529 | 73 | 252 | 16.5 | 0.0 | 0.00 | 0.00 | 0.00 | 34 | 971.2 |
| 20260504210101 | 73 | 245 | 17.4 | 0.0 | 0.00 | 0.00 | 0.00 | 34 | 971.2 |
| 20260504204535 | 74 | 242 | 16.5 | 0.0 | 0.00 | 0.00 | 0.00 | 36 | 971.9 |
| 20260504203045 | 74 | 237 | 14.8 | 0.0 | 0.00 | 0.00 | 0.00 | 36 | 971.9 |
| 20260504201536 | 74 | 233 | 16.5 | 0.0 | 0.00 | 0.00 | 0.00 | 36 | 971.9 |
| 20260504200058 | 74 | 228 | 16.5 | 0.0 | 0.00 | 0.00 | 0.00 | 38 | 971.2 |
| 20260504194536 | 74 | 227 | 16.5 | 0.0 | 0.00 | 0.00 | 0.00 | 38 | 972.3 |
| 20260504193055 | 74 | 224 | 16.5 | 0.0 | 0.00 | 0.00 | 0.00 | 38 | 972.3 |
| 20260504191536 | 73 | 225 | 16.5 | 0.0 | 0.00 | 0.00 | 0.00 | 38 | 972.3 |
| 20260504184532 | 73 | 229 | 15.6 | 0.0 | 0.00 | 0.00 | 0.00 | 30 | 973.2 |
| 20260504183056 | 73 | 229 | 15.6 | 0.0 | 0.00 | 0.00 | 0.00 | 32 | 972.9 |
| 20260504181536 | 73 | 230 | 14.8 | 0.0 | 0.00 | 0.00 | 0.00 | 32 | 972.9 |
| 20260504180107 | 73 | 232 | 14.8 | 0.0 | 0.00 | 0.00 | 0.00 | 32 | 972.9 |
| 20260504174535 | 72 | 233 | 15.6 | 0.0 | 0.00 | 0.00 | 0.00 | 31 | 973.8 |
| 20260504173051 | 72 | 231 | 15.6 | 0.0 | 0.00 | 0.00 | 0.00 | 35 | 973.6 |
| 20260504171535 | 71 | 229 | 15.6 | 0.0 | 0.00 | 0.00 | 0.00 | 35 | 973.6 |